This is the latest recevied weather packets stored in our database for station/object N0FDH. If no packets are shown the sender has not sent any weather packets the latest 10 day(s).
| Time | Temp. | Humidity | Pressure | Rain* | Wind** | Luminosity | Snow |
|---|---|---|---|---|---|---|---|
| 1777391144 | 8.89° C | 64% | 1013.1 hPa | 0 mm | - | 526 W/m² | - |
| 1777390840 | 8.89° C | 61% | 1013 hPa | 0 mm | - | 517 W/m² | - |
| 1777390537 | 8.89° C | 63% | 1013.1 hPa | 0 mm | - | 505 W/m² | - |
| 1777390233 | 8.33° C | 62% | 1012.9 hPa | 0 mm | - | 493 W/m² | - |
| 1777389930 | 8.33° C | 66% | 1012.8 hPa | 0 mm | - | 483 W/m² | - |
| 1777389627 | 8.33° C | 62% | 1013 hPa | 0 mm | - | 471 W/m² | - |
| 1777389323 | 8.33° C | 65% | 1012.7 hPa | 0 mm | - | 459 W/m² | - |
| 1777389021 | 7.78° C | 64% | 1012.6 hPa | 0 mm | - | 436 W/m² | - |
| 1777388718 | 8.33° C | 67% | 1012.5 hPa | 0 mm | - | 408 W/m² | - |
| 1777388415 | 7.78° C | 68% | 1012.5 hPa | 0 mm | - | 477 W/m² | - |
| 1777388114 | 7.78° C | 68% | 1012.5 hPa | 0 mm | - | 449 W/m² | - |
| 1777387810 | 7.78° C | 70% | 1012.6 hPa | 0 mm | - | 325 W/m² | - |
| 1777387507 | 7.78° C | 71% | 1012.5 hPa | 0 mm | - | 427 W/m² | - |
| 1777387203 | 7.22° C | 74% | 1012.4 hPa | 0 mm | - | 292 W/m² | - |
| 1777386898 | 7.22° C | 70% | 1012.4 hPa | 0 mm | - | 251 W/m² | - |
| 1777386595 | 6.67° C | 71% | 1012.3 hPa | 0 mm | - | 284 W/m² | - |
| 1777386292 | 7.22° C | 70% | 1012.4 hPa | 0 mm | - | 126 W/m² | - |
| 1777385989 | 7.22° C | 73% | 1011.9 hPa | 0 mm | - | 239 W/m² | - |
| 1777385685 | 6.67° C | 72% | 1011.8 hPa | 0 mm | - | 211 W/m² | - |
| 1777385383 | 6.67° C | 73% | 1011.6 hPa | 0 mm | - | 297 W/m² | - |
| 1777385080 | 6.67° C | 73% | 1011.7 hPa | 0 mm | - | 239 W/m² | - |
| 1777384776 | 6.67° C | 74% | 1012 hPa | 0 mm | - | 323 W/m² | - |
| 1777384472 | 6.11° C | 75% | 1011.7 hPa | 0 mm | - | 275 W/m² | - |
| 1777384167 | 6.11° C | 76% | 1011.7 hPa | 0 mm | - | 228 W/m² | - |
| 1777383863 | 6.11° C | 76% | 1011.7 hPa | 0 mm | - | 93 W/m² | - |
* Rain latest hour (hover to see other rain measurements)
** Current wind speed in m/s (hover to see current wind gust speed)